Location: Charailles
(44.1655°N, 6.4622°E)
Time: 11:38:34
(UTC+00:00)

Daily predictions for brighter satellites

Satellite Brightness Start Highest point End
(mag) Time Altitude Azimuth Time Altitude Azimuth Time Altitude Azimuth
Meteor 1-18 Rocket 4.4 18:06:15 10° N 18:12:08 64° ENE 18:17:54 10° SSE
Cosmos 2333 Rocket 3.7 18:06:55 10° SW 18:12:22 43° WNW 18:17:51 10° NNE
SeaSat 1 3.2 18:10:20 10° NNE 18:15:10 57° WNW 18:19:57 10° SW
Iridium 4 Rocket 3.3 18:11:23 10° NNE 18:15:21 42° E 18:19:18 10° SSE
Cosmos 1151 Rocket 3.0 18:11:53 10° N 18:16:10 89° WSW 18:20:24 10° S
Meteor 1-5 Rocket 4.5 18:15:37 10° SSW 18:21:16 81° W 18:27:10 10° N
Cosmos 1937 Rocket 4.3 18:18:00 10° NNW 18:23:11 57° WSW 18:28:22 10° S
NOSS 0 Rocket 4.3 18:19:51 10° S 18:25:39 43° ESE 18:31:29 10° NE
USA 276 3.1 18:25:20 10° NW 18:27:59 31° NNE 18:30:24 11° E
Cosmos 1943 Rocket 3.2 18:23:26 10° N 18:28:05 27° NE 18:32:34 11° ESE
ACS3 Solar Sail 3.0 18:25:01 10° ESE 18:29:55 24° ENE 18:34:49 10° NNE
Cosmos 2322 3.7 18:25:15 10° SSW 18:30:54 89° ESE 18:36:36 10° NNE
Cosmos 2233 Rocket 4.1 18:25:54 10° S 18:32:02 83° W 18:38:15 10° N
Cosmos 1400 Rocket 2.6 18:28:34 10° N 18:32:23 66° E 18:36:06 10° SSE
BlueWalker 3 1.8 18:30:47 10° NW 18:34:32 88° NNE 18:37:58 12° SE
Cosmos 1726 1.9 18:32:05 10° SSW 18:34:50 63° W 18:37:36 10° N
Cosmos 1066 Rocket 4.3 18:29:07 10° N 18:35:01 74° E 18:40:47 10° SSE
Resurs 1-3 3.5 18:31:06 10° SSE 18:35:25 73° ENE 18:39:46 10° N
SAR-Lupe-2 3.6 18:39:51 10° S 18:43:25 81° WSW 18:47:01 10° NNW
Cosmos 1315 Rocket 4.3 18:45:10 10° NNE 18:48:03 19° ENE 18:49:14 17° E
Cosmos 1464 Rocket 4.4 18:42:14 10° SSE 18:48:06 43° E 18:54:03 10° NNE
Meteor PRIRODA 3.2 18:44:55 10° SSE 18:48:12 82° ENE 18:51:31 10° N
Cosmos 1125 Rocket 4.1 18:47:12 10° N 18:52:00 36° ENE 18:55:24 17° ESE
Cosmos 1536 3.1 18:49:23 10° SSE 18:52:57 40° E 18:56:33 10° NNE
Cosmos 1842 3.0 18:49:46 10° N 18:53:21 61° E 18:56:56 10° SSE
Okean 3 Rocket 3.8 18:49:06 10° SSE 18:53:22 47° E 18:57:38 10° NNE
COSMOS 2428 3.0 18:49:02 10° SSW 18:54:44 74° WNW 19:00:29 10° NNE
USA 59 Rocket 0.2 18:50:58 10° NW 18:54:57 90° WSW 19:00:05 12° SE
Cosmos 1707 2.6 18:53:40 10° N 18:57:10 54° E 19:00:08 14° SSE
Cosmos 1515 Rocket 3.9 18:53:17 10° N 18:57:26 43° ENE 19:00:44 15° SE
Okean O Rocket 2.5 18:57:42 20° ESE 18:59:50 30° ENE 19:03:41 10° N
CZ-4B DEB 4.3 19:02:04 10° S 19:07:36 78° WSW 19:13:07 10° NNW
USA 306 4.2 19:05:05 10° W 19:07:50 27° NNW 19:10:59 10° NE
Cosmos 2278 Rocket 2.1 19:02:23 10° NNW 19:08:05 76° ENE 19:12:39 16° SSE
CZ-4 R/B 1.3 19:04:54 10° S 19:08:43 81° W 19:12:36 10° NNW
Meteor 2-9 Rocket 4.5 19:04:21 10° SSE 19:09:19 41° E 19:14:22 10° NNE
Cosmos 2034 Rocket 4.3 19:04:36 10° SSE 19:10:22 42° E 19:16:07 10° NNE
Meteor 1-13 Rocket 4.4 19:05:03 10° N 19:10:48 52° ENE 19:14:59 18° SSE
CZ-4B R/B 3.1 19:06:54 11° SSE 19:12:06 67° ENE 19:17:26 10° N
Cosmos 1500 Rocket 4.2 19:10:44 25° SE 19:12:13 32° E 19:16:07 10° NNE
Cosmos 1766 Rocket 4.3 19:08:49 10° SSW 19:13:04 54° WNW 19:17:23 10° N
Cosmos 1072 Rocket 4.5 19:07:29 10° S 19:13:51 73° E 19:20:14 10° NNE
Resurs 01 Rocket 1.5 19:10:19 13° SSE 19:14:13 75° ENE 19:18:39 10° N
NOSS 3-3 (C) 4.0 19:09:58 10° S 19:14:53 41° ESE 19:20:30 10° NE
NOSS 2-1 (C) 4.1 19:11:21 10° NW 19:15:17 59° SW 19:19:46 15° SSE
Meteor 2-10 4.2 19:10:39 10° S 19:16:07 62° E 19:21:44 10° NNE
ADEOS 4.4 19:11:47 10° S 19:16:51 51° W 19:21:56 10° NNW
GEOS 3 Rocket 3.6 19:13:40 20° SE 19:17:25 89° WSW 19:22:38 10° NW
Meteor 2-17 Rocket 4.4 19:11:21 10° N 19:17:27 89° WSW 19:23:31 10° S
Helios 1A 3.6 19:13:40 10° N 19:17:40 56° WNW 19:21:37 10° SSW
USA 290 2.7 19:15:06 10° NNW 19:18:21 61° WSW 19:20:16 22° S
Cosmos 1743 Rocket 4.5 19:19:19 28° E 19:19:19 28° E 19:22:40 10° NNE
USA 186 1.7 19:17:45 24° S 19:19:35 83° WSW 19:22:49 10° NNW
CZ-4B R/B 4.4 19:15:13 10° S 19:19:44 44° W 19:24:20 10° NNW
PAYLOAD B 4.4 19:15:07 10° SSE 19:20:42 79° WSW 19:26:22 10° NNW
MOS 1-B 4.3 19:17:39 18° SSE 19:21:57 64° ENE 19:27:41 10° N
SPOT 5 3.7 19:22:14 28° E 19:22:51 29° ENE 19:26:41 10° N
Okean-O 3.5 19:23:05 29° E 19:23:36 30° ENE 19:27:28 10° N
Cosmos 2208 Rocket 4.1 19:20:10 10° S 19:25:14 53° ESE 19:30:24 10° NNE
Cosmos 1408 Rocket 3.5 19:22:58 11° S 19:27:06 62° E 19:31:28 10° NNE
CZ-4B R/B 3.7 19:25:07 10° S 19:28:49 48° W 19:32:44 10° NNW
NOSS 3-3 (A) 3.7 19:23:50 10° SSW 19:28:58 57° ESE 19:34:56 10° NE
ISS -3.3 19:26:06 10° WSW 19:29:26 60° NNW 19:30:43 33° NE
Cosmos 2237 Rocket 2.2 19:28:05 10° SSW 19:33:43 87° WNW 19:39:23 10° NNE
CSL-04 Rocket 3.6 19:31:44 17° SSE 19:35:54 86° WSW 19:41:15 10° NNW
Aureole 3 Rocket 3.9 19:29:08 10° S 19:36:09 59° E 19:41:10 10° NNE
Cosmos 1607 4.4 19:30:51 10° S 19:36:42 38° ESE 19:42:35 10° NE
Meteor 1-11 Rocket 3.7 19:39:32 10° SSW 19:45:11 83° W 19:50:46 10° N
Lacrosse 4 Rocket 4.3 19:44:04 10° WNW 19:46:01 13° WSW 19:47:57 10° SW
MOS 1 Rocket 4.0 19:45:39 39° E 19:46:04 40° ENE 19:50:57 10° N
IKONOS-2 4.4 19:43:23 10° NNE 19:47:33 85° WNW 19:50:24 20° SSW
Cosmos 158 Rocket 3.9 19:45:45 10° SSW 19:50:37 78° WNW 19:55:31 10° NNE
ATLAS CENTAUR R/B 1.6 19:47:34 10° SW 19:51:02 56° NW 19:54:43 10° NNE
Cosmos 1805 Rocket 3.3 19:52:47 68° SSE 19:53:14 77° E 19:57:34 10° NNE
Cosmos 1428 Rocket 4.3 19:53:26 10° N 19:59:34 88° E 20:02:18 35° S
SL-24 R/B 4.3 20:01:56 66° ESE 20:02:09 68° E 20:06:57 10° N
USA 276 4.3 19:59:27 10° WNW 20:00:38 21° WNW 20:00:38 21° WNW
Cosmos 2369 Rocket 3.2 20:00:00 10° N 20:05:02 31° NE 20:05:11 31° NE
Sich 1 3.2 20:07:33 51° SW 20:08:26 67° W 20:12:44 10° N
Meteor 1-21 4.2 20:04:08 10° N 20:09:52 66° ENE 20:10:23 63° ESE
Cosmos 1943 Rocket 2.8 20:06:45 10° NW 20:12:04 50° WSW 20:14:06 34° SSW
BlueWalker 3 4.4 20:10:05 10° W 20:12:05 14° SW 20:12:13 14° SW
Terra 2.6 20:13:52 38° NE 20:13:52 38° NE 20:17:16 10° N
ACS3 Solar Sail 2.2 20:09:36 26° S 20:13:23 66° W 20:19:47 10° NNW
ERS-1 Rocket 3.3 20:14:03 52° NE 20:14:03 52° NE 20:18:26 10° N
Cosmos 2298 Rocket 3.9 20:10:38 10° NNW 20:15:57 85° WSW 20:16:27 74° S
Cosmos 2195 Rocket 4.5 20:10:56 10° N 20:17:03 77° W 20:19:12 43° S
Cosmos 2150 Rocket 3.8 20:12:28 10° NNW 20:17:39 82° WSW 20:17:56 77° SSW
USA 32 4.2 20:12:57 10° N 20:18:10 69° W 20:19:24 51° SSW
Ariane Rocket 4.0 20:24:21 34° NE 20:24:21 34° NE 20:27:50 10° N
Cosmos 1315 Rocket 4.2 20:20:36 10° NNW 20:24:12 33° W 20:24:27 33° WSW
Cosmos 2026 Rocket 3.9 20:18:11 10° N 20:24:25 81° W 20:25:51 55° S
Cosmos 1092 Rocket 4.0 20:18:34 10° N 20:24:55 83° W 20:26:28 55° S
IRS-1A Rocket 4.1 20:26:28 79° ESE 20:26:43 81° ENE 20:32:26 10° NNW
Meteor 2-12 Rocket 4.3 20:22:03 10° N 20:28:15 88° E 20:28:56 72° SSE
SL-16 R/B 2.4 20:35:16 59° NNE 20:35:16 59° NNE 20:39:49 10° NNE
Okean O Rocket 3.3 20:35:03 25° WSW 20:36:02 28° W 20:39:52 10° NW
Cosmos 1634 Rocket 4.0 20:36:31 57° SSW 20:37:55 80° W 20:44:18 10° N
Cosmos 1656 Rocket 3.9 20:36:23 10° NNW 20:41:19 65° N 20:41:19 65° N
IRS-1C Rocket 4.3 20:45:02 67° NW 20:45:02 67° NW 20:49:40 10° NNW
USA 59 Rocket 3.1 20:42:33 10° W 20:44:24 12° WSW 20:46:28 10° SW
Okean-O 4.5 21:00:31 26° W 21:00:31 26° W 21:03:42 10° NW
SPOT 5 4.4 21:01:23 30° W 21:01:23 30° W 21:04:47 10° NW
USA 267 3.9 21:08:22 44° NE 21:08:54 45° NNE 21:15:02 10° NW
Cosmos 2279 Rocket 4.5 21:20:00 56° WNW 21:20:00 56° WNW 21:25:41 10° N
NOSS 3-4 (A) 4.3 21:39:06 10° NW 21:44:37 54° WNW 21:44:37 54° WNW
NOSS 3-4 (C) 4.3 21:39:12 10° NW 21:44:43 54° WNW 21:44:43 54° WNW
Cosmos 2369 Rocket 3.8 21:43:47 10° NW 21:46:58 31° WNW 21:46:58 31° WNW
Terra 4.4 21:52:34 16° WNW 21:52:34 16° WNW 21:54:06 10° NW
ATLAS 2AS CENTAUR R/B 4.2 22:31:27 10° NNW 22:36:31 28° NNE 22:36:31 28° NNE
Cosmos 2344 4.3 23:21:04 10° NW 23:27:14 58° NW 23:27:14 58° NW
